GEO-KOMPSAT-2B

Last updated on Sun Jun 21 2026 00:03:08 GMT+0000 (Coordinated Universal Time)

1 45246U 20013B 26171.41741235 -.00000348 00000+0 00000+0 0 9995 2 45246 0.0471 200.9451 0000391 84.2833 261.9282 1.00272336 23310
UTC large
Height (km)
Speed (km/s)
/
Latitude / Longitude
Inclination (degrees)
Orbital Period (minutes)
Azimuth
Elevation
Range (km)
Doppler Factor

Next 0 passes for location: London (51.5072 / 0.1276)

No passes found over London.
GEO-KOMPSAT-2B